This demonstration page uses our WeatherBlox Daily Observations layout. Learn more.

Left ArrowRight Arrow

39.08367, -84.50855

Hourly Observations for January 24, 2021

Temp ( °F °C ) Dew Point ( °F °C ) Humidity (%) Winds ( mph kmh ) Pressure ( in mb ) Visibility ( mi km ) Precip ( " mm )
12:53 am 00:53 Mostly Cloudy 27 -2.8 14 -10 58 58 N 3 6 30.34 1028 10 16.0934 0 0
1:53 am 01:53 Cloudy 28 -2.2 14 -10 56 56 NNE 6 9 30.3 1026 10 16.0934 0 0
2:53 am 02:53 Cloudy 29 -1.7 13 -10.6 51 51 Calm 30.29 1026 10 16.0934 0 0
3:53 am 03:53 Cloudy 30 -1.1 12 -11.1 47 47 SSE 3 6 30.27 1025 10 16.0934 0 0
4:53 am 04:53 Cloudy 30 -1.1 12 -11.1 47 47 E 6 9 30.24 1024 10 16.0934 0 0
5:53 am 05:53 Cloudy 30 -1.1 13 -10.6 49 49 VRB 3 6 30.22 1023 10 16.0934 0 0
6:53 am 06:53 Cloudy 31 -0.6 12 -11.1 45 45 Calm 30.23 1024 10 16.0934 0 0
7:53 am 07:53 Cloudy 31 -0.6 13 -10.6 47 47 E 7 11 30.22 1023 10 16.0934 0 0
8:53 am 08:53 Cloudy 32 0 13 -10.6 45 45 SE 3 6 30.21 1023 10 16.0934 0 0
9:44 am 09:44 Cloudy with Light Snow 31 -0.6 17 -8.3 56 56 ESE 6 9 30.22 1023 3 4.82802 0.001 0.001
9:50 am 09:50 Cloudy with Light Snow 30 -1 18 -8 59 59 ESE 8 13 30.22 1023 1.75 2.816345 0.001 0.001
9:53 am 09:53 Cloudy with Light Snow 30 -1.1 19 -7.2 64 64 SE 5 7 30.2 1023 2 3.21868 0.001 0.001
10:53 am 10:53 Cloudy with Light Snow 30 -1.1 22 -5.6 72 72 S 3 6 30.2 1023 6 9.65604 0.001 0.001
11:53 am 11:53 Cloudy with Light Rain 31 -0.6 24 -4.4 76 76 Calm 30.19 1022 8 12.87472 0.02 0.508
12:53 pm 12:53 Cloudy with Light Rain 32 0 26 -3.3 79 79 SSE 7 11 30.13 1020 8 12.87472 0.001 0.001
1:53 pm 13:53 Cloudy with Light Rain 33 0.6 26 -3.3 75 75 VRB 3 6 30.1 1019 10 16.0934 0.001 0.001
2:53 pm 14:53 Cloudy with Light Rain 33 0.6 28 -2.2 82 82 SSE 5 7 30.09 1019 5 8.0467 0.001 0.001
3:30 pm 15:30 Cloudy with Light Rain 33 0.6 30 -1.1 89 89 Calm 30.12 1020 2.5 4.02335 0.001 0.001
3:53 pm 15:53 Cloudy with Light Rain 33 0.6 31 -0.6 92 92 Calm 30.09 1019 2 3.21868 0.01 0.254
4:53 pm 16:53 Cloudy with Light Rain 33 0.6 31 -0.6 92 92 Calm 30.08 1019 3 4.82802 0.001 0.001
5:53 pm 17:53 Cloudy with Light Rain 33 0.6 31 -0.6 92 92 Calm 30.09 1019 2.5 4.02335 0.001 0.001
6:53 pm 18:53 Cloudy with Mist and Fog 33 0.6 31 -0.6 92 92 Calm 30.11 1020 2 3.21868 0.001 0.001
7:53 pm 19:53 Cloudy with Mist and Fog 33 0.6 32 0 96 96 Calm 30.11 1020 2 3.21868 0 0
8:23 pm 20:23 Cloudy with Mist and Fog 33 0.6 32 0 96 96 Calm 30.12 1020 3 4.82802 0 0
8:53 pm 20:53 Cloudy with Mist and Fog 33 0.6 32 0 96 96 Calm 30.1 1019 3 4.82802 0 0
9:39 pm 21:39 Cloudy with Mist and Fog 33 0.6 32 0 96 96 Calm 30.11 1020 2.5 4.02335 0 0
9:53 pm 21:53 Cloudy with Mist and Fog 33 0.6 32 0 96 96 WNW 5 7 30.1 1019 3 4.82802 0 0
10:53 pm 22:53 Cloudy with Mist and Fog 33 0.6 32 0 96 96 Calm 30.1 1019 3 4.82802 0 0
11:00 pm 23:00 Cloudy with Mist and Fog 34 1.1 32 0 92 92 Calm 30.12 1020 1.75 2.816345 0 0
11:08 pm 23:08 Cloudy with Mist and Fog 34 1.1 32 0 92 92 Calm 30.13 1020 2 3.21868 0 0
11:53 pm 23:53 Cloudy with Mist and Fog 34 1.1 32 0 92 92 Calm 30.1 1019 1.75 2.816345 0 0

Powered by AerisWeather